Weather in Kogaly

Kazakhstan     44°28′21″N   78°40′09″E
temp.,
°C
wind,
m/s
gust,
m/s
humid.,
%
clouds,
%
prec.,
mm/h
press.,
hPa
HPBL,
m
17 april, sat
sat1700:00+8se1170100 0.4 101811
03:00+7ssw117194 0.3 101710
06:00+6wsw2285100 0.4 101843
09:00+8e327248 0.4 1019332
12:00+11w454998 0.7 10181856
15:00+11w465426 1.6 10181391
18:00+11nw494877 2.4 10182158
21:00+7ne116212 0.3 102010
18 april, sun
sun1800:00+6ese22649 0.3 102015
03:00+5ese22652 0.0 101916
06:00+4ese226665 0.0 101916
09:00+10ssw134727 0.0 10181148
12:00+12w343999 0.0 10171868
15:00+13wnw3438100 0.0 10162100
18:00+11nnw4344100 0.0 10171683
21:00+8nw1252100 0.0 101915
19 april, mon
mon1900:00+5sw4582100 0.0 1020177
03:00+5wsw1175100 0.4 101990
06:00+4wnw3497100 2.7 1020571
09:00+3ene1197100 4.7 1022243
12:00+4w1293100 6.9 1021410
15:00+8nw3666100 2.4 10181135
18:00+8ne1163100 4.4 1018327
21:00+5e34854 0.9 1019212
20 april, tue
tue2000:00+4ese32785 0.9 101826
03:00+4se226956 0.0 101617
06:00+4sse3369100 0.0 101622
09:00+9sse235598 0.0 1014419
12:00+10wsw3549100 0.1 10131620
15:00+10nw2650100 1.0 10111396
18:00+7nne2274100 2.1 1012540
21:00+6nnw0088100 0.3 101340
21 april, wed
wed2100:00+5n0193100 2.6 1013236
03:00+4w2296100 0.6 1012296
06:00+3wnw2398100 0.8 1013242
09:00+3nw2196100 0.1 1014261
12:00+2nw3398100 0.4 1016205
15:000nnw3395100 0.1 1018372
18:00−2nnw3394100 0.1 1022341
21:00−4nw3382100 0.0 1027228